Total_Precipitation_Accumulation
0.04 0.08 0.14 0.17 0.17 0.15 0.12 0.10 0.16 0.19 0.37 0.40 0.52 0.68 0.82 0.84 0.77 0.70 0.77 0.79 0.79 0.86 1.05 1.18 1.34 1.36 1.31 1.30 1.38 1.52 1.63 1.69 1.84 2.00 2.03 1.93 1.90 1.97 2.02 2.06 1.99 2.15 2.17 2.19
0.04 0.07 0.12 0.14 0.16 0.12 0.09 0.09 0.12 0.16 0.27 0.33 0.51 0.61 0.68 0.67 0.67 0.77 0.81 0.80 0.75 0.85 1.06 1.11 1.14 1.21 1.24 1.26 1.31 1.37 1.46 1.61 1.81 2.02 2.12 2.11 2.15 2.29 2.31 2.26 2.38 2.52 2.48 2.46
0.06 0.08 0.12 0.20 0.16 0.12 0.12 0.11 0.15 0.22 0.28 0.32 0.45 0.60 0.73 0.76 0.80 0.85 0.84 0.81 0.80 0.81 0.92 1.12 1.06 1.06 1.19 1.28 1.35 1.48 1.70 1.89 1.98 2.14 2.27 2.30 2.27 2.31 2.35 2.41 2.44 2.51 2.51 2.55
0.13 0.15 0.23 0.22 0.17 0.17 0.17 0.20 0.24 0.29 0.37 0.44 0.51 0.64 0.77 0.83 0.82 0.92 1.01 1.09 1.12 1.18 1.19 1.25 1.20 1.18 1.26 1.38 1.49 1.54 1.63 1.79 1.93 2.13 2.28 2.40 2.51 2.53 2.62 2.72 2.75 2.75 2.69 2.68
0.22 0.23 0.26 0.27 0.26 0.27 0.30 0.39 0.41 0.51 0.61 0.62 0.63 0.66 0.81 0.95 1.02 1.11 1.07 1.13 1.26 1.31 1.33 1.32 1.38 1.48 1.63 1.66 1.79 1.89 1.92 2.09 2.21 2.31 2.47 2.55 2.61 2.75 2.88 2.99 2.98 2.98 2.94 2.90
0.33 0.40 0.43 0.43 0.42 0.35 0.42 0.78 0.70 0.74 0.85 0.86 0.91 1.13 1.21 1.20 1.21 1.24 1.22 1.26 1.36 1.36 1.39 1.56 1.61 1.67 1.81 2.01 2.11 2.23 2.34 2.46 2.61 2.73 2.79 2.75 2.77 2.88 2.95 3.01 3.01 3.01 2.91 2.92
0.46 0.48 0.49 0.47 0.47 0.49 0.86 1.24 1.20 1.20 1.22 1.14 1.26 1.34 1.23 1.13 1.25 1.31 1.37 1.42 1.43 1.45 1.53 1.66 1.72 1.77 1.95 2.21 2.39 2.54 2.61 2.65 2.72 2.87 3.05 3.15 3.22 3.05 2.90 2.90 2.97 3.04 2.99 3.02
0.71 0.85 0.89 0.60 0.65 1.00 1.28 1.24 1.47 1.37 1.24 1.26 1.26 1.21 1.15 1.15 1.30 1.47 1.57 1.60 1.61 1.63 1.70 1.76 1.88 2.00 2.12 2.33 2.42 2.53 2.54 2.63 2.72 2.80 2.78 2.83 3.09 3.15 3.09 3.00 2.92 2.92 2.99 2.91
1.03 1.14 1.02 0.86 0.91 1.13 1.18 1.22 1.35 1.33 1.18 1.16 1.17 1.12 1.13 1.18 1.28 1.43 1.54 1.60 1.59 1.63 1.78 1.80 1.83 1.99 2.23 2.29 2.32 2.30 2.41 2.54 2.72 2.80 2.86 2.84 2.85 2.91 2.92 2.88 2.74 2.58 2.60 2.62
1.34 1.35 1.22 1.07 0.96 1.02 1.09 1.14 1.18 1.29 1.32 1.24 1.22 1.15 1.20 1.22 1.24 1.42 1.57 1.60 1.66 1.59 1.60 1.73 1.84 2.01 2.09 2.10 2.18 2.35 2.42 2.47 2.53 2.58 2.60 2.68 2.82 2.78 2.73 2.74 2.70 2.55 2.55 2.57
1.86 1.88 1.69 1.53 1.33 1.24 1.22 1.23 1.25 1.37 1.46 1.50 1.48 1.42 1.43 1.35 1.34 1.46 1.54 1.52 1.60 1.67 1.68 1.74 1.80 1.95 2.08 2.10 2.12 2.21 2.21 2.15 2.22 2.33 2.40 2.42 2.58 2.66 2.53 2.44 2.48 2.40 2.46 2.64
2.25 2.05 2.04 1.91 1.57 1.42 1.44 1.53 1.50 1.50 1.54 1.52 1.48 1.50 1.54 1.56 1.47 1.39 1.37 1.48 1.60 1.64 1.72 1.76 1.79 1.87 1.91 1.95 2.05 2.15 2.20 2.18 2.18 2.24 2.31 2.35 2.33 2.39 2.42 2.20 2.15 2.03 2.08 2.17
1.91 1.89 1.94 1.83 1.67 1.57 1.61 1.59 1.63 1.68 1.64 1.55 1.48 1.47 1.49 1.55 1.59 1.50 1.44 1.44 1.54 1.59 1.62 1.68 1.69 1.72 1.74 1.80 2.00 2.21 2.30 2.37 2.32 2.15 2.09 2.09 2.08 2.06 2.07 1.98 1.75 1.63 1.60 1.58
1.91 1.94 2.01 1.90 1.87 1.71 1.69 1.59 1.52 1.48 1.41 1.41 1.45 1.47 1.43 1.42 1.53 1.62 1.60 1.59 1.66 1.70 1.61 1.53 1.54 1.58 1.62 1.65 1.76 1.92 1.99 2.06 2.04 1.92 1.85 1.79 1.75 1.72 1.66 1.71 1.66 1.51 1.44 1.39
1.75 1.75 1.86 1.79 1.74 1.74 1.74 1.68 1.59 1.49 1.38 1.42 1.48 1.47 1.49 1.54 1.63 1.74 1.79 1.85 1.88 1.80 1.66 1.52 1.48 1.51 1.55 1.60 1.65 1.70 1.80 1.82 1.77 1.77 1.81 1.83 1.89 1.86 1.74 1.71 1.77 1.75 1.62 1.42
1.58 1.64 1.64 1.71 1.85 1.76 1.69 1.66 1.67 1.62 1.49 1.47 1.50 1.48 1.45 1.52 1.62 1.66 1.72 1.87 2.03 1.99 1.83 1.72 1.59 1.50 1.47 1.59 1.69 1.69 1.70 1.85 1.81 1.69 1.70 1.86 1.98 1.93 1.92 1.98 1.97 2.04 2.02 1.71
1.68 1.72 1.64 1.70 1.83 1.84 1.78 1.70 1.71 1.67 1.63 1.62 1.58 1.46 1.47 1.56 1.66 1.71 1.62 1.60 1.71 1.78 1.77 1.71 1.61 1.48 1.48 1.54 1.59 1.65 1.62 1.66 1.70 1.64 1.66 1.76 1.85 1.90 1.89 1.93 2.03 2.07 2.04 1.84
1.54 1.46 1.45 1.51 1.56 1.64 1.70 1.73 1.75 1.65 1.58 1.56 1.55 1.51 1.52 1.59 1.72 1.77 1.68 1.58 1.50 1.48 1.54 1.54 1.47 1.41 1.43 1.47 1.52 1.61 1.61 1.59 1.61 1.60 1.65 1.69 1.72 1.81 1.90 1.96 2.03 2.10 1.98 1.86
1.52 1.42 1.36 1.36 1.34 1.39 1.51 1.61 1.64 1.58 1.49 1.48 1.50 1.50 1.46 1.44 1.55 1.66 1.65 1.72 1.73 1.62 1.52 1.41 1.36 1.29 1.36 1.41 1.41 1.43 1.45 1.50 1.58 1.59 1.59 1.59 1.59 1.60 1.64 1.71 1.83 1.90 1.79 1.76
1.64 1.57 1.42 1.35 1.34 1.30 1.36 1.39 1.45 1.50 1.41 1.36 1.37 1.39 1.38 1.38 1.48 1.68 1.78 1.85 1.92 1.81 1.66 1.51 1.24 1.15 1.20 1.26 1.23 1.14 1.15 1.19 1.21 1.28 1.32 1.37 1.43 1.48 1.44 1.46 1.56 1.65 1.59 1.60
1.75 1.68 1.55 1.46 1.48 1.40 1.35 1.29 1.31 1.41 1.40 1.42 1.51 1.53 1.46 1.40 1.42 1.66 1.97 2.07 1.93 1.76 1.63 1.58 1.26 1.05 0.97 1.06 1.17 1.14 1.19 1.18 1.14 1.21 1.26 1.29 1.33 1.37 1.40 1.45 1.47 1.48 1.49 1.49
1.79 1.72 1.62 1.51 1.44 1.44 1.41 1.32 1.30 1.34 1.39 1.45 1.43 1.41 1.42 1.38 1.38 1.56 1.74 1.94 1.83 1.69 1.40 1.31 1.20 1.00 0.95 0.93 0.94 1.06 1.16 1.19 1.19 1.21 1.24 1.27 1.30 1.33 1.37 1.36 1.36 1.33 1.33 1.36
1.80 1.69 1.59 1.47 1.43 1.40 1.35 1.33 1.29 1.30 1.35 1.34 1.30 1.35 1.41 1.43 1.39 1.55 1.67 1.49 1.36 1.38 1.24 1.20 1.13 0.98 0.88 0.85 0.88 0.92 1.00 1.07 1.10 1.12 1.13 1.15 1.18 1.21 1.24 1.26 1.28 1.22 1.26 1.30
1.69 1.72 1.70 1.62 1.46 1.37 1.37 1.34 1.30 1.31 1.27 1.27 1.27 1.30 1.32 1.35 1.31 1.27 1.31 1.31 1.29 1.24 1.14 1.16 1.05 0.90 0.79 0.74 0.81 0.90 0.96 1.01 1.03 1.02 1.03 1.08 1.12 1.15 1.21 1.26 1.28 1.24 1.22 1.18
1.60 1.59 1.58 1.60 1.53 1.43 1.36 1.30 1.35 1.41 1.35 1.30 1.25 1.23 1.21 1.21 1.21 1.21 1.19 1.20 1.23 1.16 1.05 1.07 1.02 0.99 0.90 0.88 0.92 0.97 1.00 1.05 1.07 1.06 1.07 1.11 1.14 1.17 1.21 1.25 1.23 1.20 1.18 1.17
1.52 1.48 1.49 1.47 1.41 1.41 1.37 1.34 1.43 1.47 1.40 1.34 1.29 1.21 1.14 1.11 1.14 1.20 1.28 1.24 1.13 1.07 0.99 0.97 0.96 0.99 0.98 1.03 1.09 1.08 1.04 1.06 1.05 1.01 1.06 1.16 1.21 1.22 1.20 1.14 1.09 1.10 1.08 1.06
1.43 1.42 1.45 1.41 1.36 1.33 1.33 1.31 1.38 1.47 1.42 1.33 1.32 1.29 1.25 1.29 1.32 1.32 1.31 1.28 1.18 1.08 1.00 0.96 0.92 0.87 0.91 0.96 1.00 1.05 1.05 1.05 1.05 1.06 1.08 1.12 1.15 1.13 1.08 1.05 1.04 1.04 1.01 1.00